Weather History for Belmar-Farmingdale, NJ

Change the Weather History Date:

Sunday, February 2, 2014

  Actual Average Record
Temperature  
Mean Temperature 42 °F -  
Max Temperature 55 °F 37 °F 55 °F (2014)
Min Temperature 30 °F 25 °F 14 °F (2005)
Degree Days  
Heating Degree Days 22    
Moisture  
Dew Point 32 °F    
Average Humidity 69    
Maximum Humidity 93    
Minimum Humidity 44    
Precipitation  
Precipitation 0.00 in - - ()
Sea Level Pressure  
Sea Level Pressure 29.98 in    
Wind  
Wind Speed 3 mph (WNW)    
Max Wind Speed 10 mph    
Max Gust Speed -    
Visibility 6 miles    
Events      
Averages and records for this station are not official NWS values.
T = Trace of Precipitation, MM = Missing Value Source: NWS Daily Summary

Daily Weather History Graph

Daily Weather History Graph

Search for Another Location

Airport:

Trip Planner

Search our weather history database for the weather conditions in past years. The results will help you decide how hot, cold, wet, or windy it might be!

Date:

Astronomy

Feb. 02, 2014 Rise Set
Actual Time 7:04 AM EST 5:16 PM EST
Civil Twilight 6:35 AM EST 5:45 PM EST
Nautical Twilight 6:03 AM EST 6:17 PM EST
Astronomical Twilight 5:31 AM EST 6:49 PM EST
Moon 8:29 AM EST (2/2) 8:57 PM EST (2/2)
Length of Visible Light 11h 09m
Length of Day
10h 12m
Waxing Crescent, 11% of the Moon is Illuminated
Feb 2
Waxing Crescent
Feb 6
First Quarter
Feb 14
Full
Feb 22
Last Quarter
Mar 1
New

Hourly Weather History & Observations

Time (EST) Temp. Windchill Dew Point Humidity Pressure Visibility Wind Dir Wind Speed Gust Speed Precip Events Conditions
12:15 AM 33.8 °F - 28.4 °F 81% 30.01 in 0.2 mi Calm Calm - N/A   Overcast
12:35 AM 33.8 °F - 30.2 °F 87% 30.00 in 0.2 mi Calm Calm - N/A   Overcast
12:55 AM 33.8 °F - 30.2 °F 87% 29.99 in 0.5 mi Calm Calm - N/A   Overcast
1:15 AM 35.6 °F 32.8 °F 30.2 °F 81% 29.98 in 0.8 mi West 3.5 mph - N/A   Overcast
1:35 AM 35.6 °F - 30.2 °F 81% 29.98 in 1.0 mi Calm Calm - N/A   Overcast
1:55 AM 35.6 °F - 30.2 °F 81% 29.97 in 1.8 mi Calm Calm - N/A   Overcast
2:15 AM 33.8 °F 30.8 °F 30.2 °F 87% 29.96 in 1.8 mi NW 3.5 mph - N/A   Overcast
2:35 AM 35.6 °F - 32.0 °F 87% 29.95 in 1.5 mi Calm Calm - N/A   Overcast
2:55 AM 35.6 °F - 33.8 °F 93% 29.94 in 1.8 mi Calm Calm - N/A   Overcast
3:15 AM 37.4 °F - 33.8 °F 87% 29.94 in 1.5 mi Calm Calm - N/A   Mostly Cloudy
3:35 AM 35.6 °F - 32.0 °F 87% 29.93 in 1.0 mi Calm Calm - N/A   Mostly Cloudy
3:55 AM 35.6 °F - 32.0 °F 87% 29.93 in 0.2 mi Calm Calm - N/A   Overcast
4:15 AM 35.6 °F - 30.2 °F 81% 29.92 in 0.2 mi Calm Calm - N/A   Overcast
4:35 AM 33.8 °F - 28.4 °F 81% 29.92 in 0.2 mi Calm Calm - N/A   Overcast
4:55 AM 30.2 °F - 26.6 °F 86% 29.93 in 0.2 mi Calm Calm - N/A   Overcast
5:15 AM 30.2 °F - 26.6 °F 86% 29.94 in 0.2 mi Calm Calm - N/A   Overcast
5:35 AM 30.2 °F - 26.6 °F 86% 29.94 in 0.2 mi Calm Calm - N/A   Overcast
5:55 AM 30.2 °F 24.3 °F 26.6 °F 86% 29.94 in 0.2 mi WSW 5.8 mph - N/A   Overcast
6:15 AM 30.2 °F 25.4 °F 26.6 °F 86% 29.94 in 0.2 mi WSW 4.6 mph - N/A   Overcast
6:35 AM 30.2 °F 25.4 °F 26.6 °F 86% 29.94 in 0.2 mi WSW 4.6 mph - N/A   Overcast
6:55 AM 32.0 °F 26.4 °F 28.4 °F 87% 29.94 in 0.2 mi SW 5.8 mph - N/A   Overcast
7:15 AM 32.0 °F 25.6 °F 28.4 °F 87% 29.95 in 0.2 mi WSW 6.9 mph - N/A   Overcast
7:35 AM 32.0 °F 25.6 °F 28.4 °F 87% 29.95 in 0.2 mi WSW 6.9 mph - N/A   Overcast
7:55 AM 33.8 °F 28.6 °F 28.4 °F 81% 29.96 in 0.2 mi WSW 5.8 mph - N/A   Overcast
8:15 AM 33.8 °F 27.7 °F 28.4 °F 81% 29.96 in 0.2 mi WSW 6.9 mph - N/A   Overcast
8:35 AM 33.8 °F 27.7 °F 30.2 °F 87% 29.96 in 0.2 mi WSW 6.9 mph - N/A   Overcast
8:55 AM 35.6 °F 30.7 °F 32.0 °F 87% 29.96 in 1.2 mi WSW 5.8 mph - N/A   Mostly Cloudy
9:15 AM 37.4 °F 32.8 °F 33.8 °F 87% 29.96 in 4.0 mi West 5.8 mph - N/A   Partly Cloudy
9:35 AM 39.2 °F 35.0 °F 35.6 °F 87% 29.96 in 6.0 mi West 5.8 mph - N/A   Clear
9:55 AM 39.2 °F 34.2 °F 35.6 °F 87% 29.96 in 10.0 mi WSW 6.9 mph - N/A   Clear
10:15 AM 42.8 °F 39.3 °F 33.8 °F 70% 29.97 in 10.0 mi West 5.8 mph - N/A   Clear
10:35 AM 44.6 °F 39.2 °F 35.6 °F 71% 29.97 in 10.0 mi West 10.4 mph - N/A   Clear
10:55 AM 44.6 °F 40.2 °F 35.6 °F 71% 29.98 in 10.0 mi West 8.1 mph - N/A   Clear
11:15 AM 46.4 °F 42.4 °F 33.8 °F 62% 29.97 in 10.0 mi West 8.1 mph - N/A   Clear
11:35 AM 48.2 °F - 33.8 °F 58% 29.98 in 10.0 mi West 8.1 mph - N/A   Clear
11:55 AM 50.0 °F - 33.8 °F 54% 29.97 in 10.0 mi West 8.1 mph - N/A   Clear
12:15 PM 51.8 °F - 33.8 °F 50% 29.97 in 10.0 mi West 8.1 mph - N/A   Mostly Cloudy
12:35 PM 51.8 °F - 32.0 °F 47% 29.96 in 10.0 mi West 6.9 mph - N/A   Overcast
12:55 PM 53.6 °F - 32.0 °F 44% 29.95 in 10.0 mi WSW 5.8 mph - N/A   Overcast
1:15 PM 53.6 °F - 33.8 °F 47% 29.95 in 10.0 mi West 8.1 mph - N/A   Mostly Cloudy
1:35 PM 55.4 °F - 33.8 °F 44% 29.95 in 10.0 mi WNW 6.9 mph - N/A   Scattered Clouds
1:55 PM 55.4 °F - 33.8 °F 44% 29.95 in 10.0 mi West 8.1 mph - N/A   Scattered Clouds
2:15 PM 55.4 °F - 35.6 °F 47% 29.95 in 10.0 mi WNW 10.4 mph - N/A   Overcast
2:35 PM 53.6 °F - 35.6 °F 51% 29.95 in 10.0 mi WNW 8.1 mph - N/A   Scattered Clouds
2:55 PM 55.4 °F - 35.6 °F 47% 29.94 in 10.0 mi WNW 5.8 mph - N/A   Clear
3:15 PM 55.4 °F - 35.6 °F 47% 29.94 in 10.0 mi WNW 4.6 mph - N/A   Clear
3:35 PM 55.4 °F - 35.6 °F 47% 29.94 in 10.0 mi West 9.2 mph - N/A   Clear
3:55 PM 55.4 °F - 35.6 °F 47% 29.94 in 10.0 mi West 4.6 mph - N/A   Clear
4:15 PM 53.6 °F - 35.6 °F 51% 29.95 in 10.0 mi WNW 6.9 mph - N/A   Clear
4:35 PM 53.6 °F - 35.6 °F 51% 29.96 in 10.0 mi WNW 4.6 mph - N/A   Clear
4:55 PM 51.8 °F - 35.6 °F 54% 29.97 in 10.0 mi WNW 3.5 mph - N/A   Clear
5:15 PM 48.2 °F - 33.8 °F 58% 29.98 in 10.0 mi WNW 4.6 mph - N/A   Clear
5:35 PM 48.2 °F - 33.8 °F 58% 29.98 in 10.0 mi Calm Calm - N/A   Clear
5:55 PM 48.2 °F - 33.8 °F 58% 29.99 in 10.0 mi WNW 3.5 mph - N/A   Mostly Cloudy
6:15 PM 48.2 °F - 33.8 °F 58% 29.99 in 10.0 mi Calm Calm - N/A   Mostly Cloudy
6:35 PM 48.2 °F - 33.8 °F 58% 30.00 in 10.0 mi Calm Calm - N/A   Mostly Cloudy
6:55 PM 50.0 °F - 33.8 °F 54% 30.00 in 10.0 mi Calm Calm - N/A   Overcast
7:15 PM 48.2 °F - 33.8 °F 58% 30.01 in 10.0 mi West 3.5 mph - N/A   Overcast
7:35 PM 46.4 °F 45.2 °F 33.8 °F 62% 30.02 in 10.0 mi West 3.5 mph - N/A   Overcast
7:55 PM 44.6 °F 41.4 °F 33.8 °F 66% 30.04 in 10.0 mi NW 5.8 mph - N/A   Overcast
8:15 PM 44.6 °F 42.2 °F 33.8 °F 66% 30.04 in 10.0 mi NNW 4.6 mph - N/A   Overcast
8:35 PM 46.4 °F 43.5 °F 33.8 °F 62% 30.03 in 10.0 mi NNW 5.8 mph - N/A   Overcast
8:55 PM 46.4 °F 43.5 °F 35.6 °F 66% 30.04 in 10.0 mi NNW 5.8 mph - N/A   Overcast
9:15 PM 44.6 °F 40.2 °F 35.6 °F 71% 30.05 in 10.0 mi NNW 8.1 mph - N/A   Overcast
9:35 PM 46.4 °F 42.9 °F 35.6 °F 66% 30.06 in 10.0 mi NNW 6.9 mph - N/A   Overcast
9:55 PM 46.4 °F 41.5 °F 35.6 °F 66% 30.06 in 10.0 mi North 10.4 mph - N/A   Overcast
10:15 PM 44.6 °F 39.7 °F 33.8 °F 66% 30.07 in 10.0 mi North 9.2 mph - N/A   Overcast
10:35 PM 44.6 °F 40.2 °F 33.8 °F 66% 30.08 in 10.0 mi NNW 8.1 mph - N/A   Overcast
10:55 PM 44.6 °F 40.2 °F 33.8 °F 66% 30.07 in 10.0 mi NNW 8.1 mph - N/A   Overcast
11:15 PM 42.8 °F 38.6 °F 33.8 °F 70% 30.07 in 10.0 mi NNW 6.9 mph - N/A   Overcast
11:35 PM 42.8 °F 38.6 °F 32.0 °F 66% 30.06 in 10.0 mi NNW 6.9 mph - N/A   Overcast
11:55 PM 42.8 °F 39.3 °F 32.0 °F 66% 30.07 in 10.0 mi NNW 5.8 mph - N/A   Overcast